Location: Hermaringen
(48.5952°N, 10.2585°E)
Time: 20:51:24
(UTC+00:00)

Okean 2 Rocket - Pass Details

Date: 18 November 2025
Orbit: 611 x 635 km, 82.5° (Epoch: 10 December)

Event Time Altitude Azimuth Distance (km) Brightness Sun altitude
Rises 17:10:47 0° 171° (S) 2,885 6.5 -15.5°
Reaches altitude 10° 17:13:05 10° 164° (SSE) 1,980 5.6 -15.9°
Maximum altitude 17:17:14 44° 93° (E) 860 3.3 -16.5°
Enters shadow 17:20:03 19° 29° (NNE) 1,482 4.6 -17.0°
